Time,TemperatureF,DewpointF,PressureIn,WindDirection,WindDirectionDegrees,WindSpeedMPH,WindSpeedGustMPH,Humidity,HourlyPrecipIn,Conditions,Clouds,dailyrainin,SoftwareType,DateUTC
2013-04-09 00:00:00,55.6,47.4,30.12,South,180,0.0,0.0,74,0.00,,CLR,0.00,VWS V14.01,2013-04-09 04:00:00,
2013-04-09 00:01:00,55.4,47.3,30.12,South,180,0.0,0.0,74,0.00,,CLR,0.00,VWS V14.01,2013-04-09 04:01:00,
2013-04-09 00:02:00,55.4,47.3,30.12,South,180,0.0,0.0,74,0.00,,CLR,0.00,VWS V14.01,2013-04-09 04:02:00,
2013-04-09 00:07:00,55.2,47.5,30.12,South,180,0.0,0.0,75,0.00,,CLR,0.00,VWS V14.01,2013-04-09 04:07:00,
2013-04-09 00:12:00,55.4,48.0,30.12,South,180,0.0,0.0,76,0.00,,CLR,0.00,VWS V14.01,2013-04-09 04:12:00,
2013-04-09 00:17:00,55.0,47.6,30.12,South,180,0.0,0.0,76,0.00,,CLR,0.00,VWS V14.01,2013-04-09 04:17:00,
2013-04-09 00:22:00,54.7,47.6,30.12,South,180,0.0,0.0,77,0.00,,CLR,0.00,VWS V14.01,2013-04-09 04:22:00,
2013-04-09 00:27:00,54.5,47.5,30.12,South,180,0.0,0.0,77,0.00,,CLR,0.00,VWS V14.01,2013-04-09 04:27:00,
2013-04-09 00:32:00,54.1,47.4,30.12,South,180,0.0,0.0,78,0.00,,CLR,0.00,VWS V14.01,2013-04-09 04:32:00,
2013-04-09 00:37:00,54.0,47.6,30.12,South,180,0.0,0.0,79,0.00,,CLR,0.00,VWS V14.01,2013-04-09 04:37:00,
2013-04-09 00:42:00,54.0,47.9,30.12,South,180,0.0,0.0,80,0.00,,CLR,0.00,VWS V14.01,2013-04-09 04:42:00,
2013-04-09 00:47:00,54.0,48.6,30.12,South,180,0.0,0.0,82,0.00,,CLR,0.00,VWS V14.01,2013-04-09 04:47:00,
2013-04-09 00:52:00,53.8,48.4,30.12,South,180,0.0,0.0,82,0.00,,CLR,0.00,VWS V14.01,2013-04-09 04:52:00,
2013-04-09 00:57:00,53.6,48.2,30.12,South,180,0.0,0.0,82,0.00,,CLR,0.00,VWS V14.01,2013-04-09 04:57:00,
2013-04-09 01:02:00,53.4,48.4,30.12,South,180,0.0,0.0,83,0.00,,CLR,0.00,VWS V14.01,2013-04-09 05:02:00,
2013-04-09 01:07:00,53.6,48.9,30.12,South,180,0.0,0.0,84,0.00,,CLR,0.00,VWS V14.01,2013-04-09 05:07:00,
2013-04-09 01:12:00,53.4,48.7,30.12,South,180,0.0,0.0,84,0.00,,CLR,0.00,VWS V14.01,2013-04-09 05:12:00,
2013-04-09 01:18:00,53.2,48.5,30.12,South,180,0.0,0.0,84,0.00,,CLR,0.00,VWS V14.01,2013-04-09 05:18:00,
2013-04-09 01:23:00,52.9,48.2,30.12,South,180,0.0,0.0,84,0.00,,CLR,0.00,VWS V14.01,2013-04-09 05:23:00,
2013-04-09 01:28:00,52.7,48.0,30.12,South,180,0.0,0.0,84,0.00,,CLR,0.00,VWS V14.01,2013-04-09 05:28:00,
2013-04-09 01:33:00,52.3,48.0,30.12,South,180,0.0,0.0,85,0.00,,CLR,0.00,VWS V14.01,2013-04-09 05:33:00,
2013-04-09 01:38:00,52.2,47.8,30.12,South,180,0.0,0.0,85,0.00,,CLR,0.00,VWS V14.01,2013-04-09 05:38:00,
2013-04-09 01:43:00,52.2,48.1,30.12,South,180,0.0,0.0,86,0.00,,CLR,0.00,VWS V14.01,2013-04-09 05:43:00,
2013-04-09 01:48:00,52.2,48.4,30.12,South,180,0.0,0.0,87,0.00,,CLR,0.00,VWS V14.01,2013-04-09 05:48:00,
2013-04-09 01:53:00,52.0,48.5,30.12,South,180,0.0,0.0,88,0.00,,CLR,0.00,VWS V14.01,2013-04-09 05:53:00,
2013-04-09 01:58:00,51.6,48.2,30.12,South,180,0.0,0.0,88,0.00,,CLR,0.00,VWS V14.01,2013-04-09 05:58:00,
2013-04-09 02:03:00,51.4,48.3,30.12,South,180,0.0,0.0,89,0.00,,CLR,0.00,VWS V14.01,2013-04-09 06:03:00,
2013-04-09 02:08:00,51.6,48.5,30.12,South,180,0.0,0.0,89,0.00,,CLR,0.00,VWS V14.01,2013-04-09 06:08:00,
2013-04-09 02:13:00,51.6,48.5,30.12,South,180,0.0,0.0,89,0.00,,CLR,0.00,VWS V14.01,2013-04-09 06:13:00,
2013-04-09 02:18:00,51.4,48.9,30.12,South,180,0.0,0.0,91,0.00,,CLR,0.00,VWS V14.01,2013-04-09 06:18:00,
2013-04-09 02:23:00,51.4,49.2,30.12,South,180,0.0,0.0,92,0.00,,CLR,0.00,VWS V14.01,2013-04-09 06:23:00,
2013-04-09 02:28:00,51.4,49.2,30.12,South,180,0.0,0.0,92,0.00,,CLR,0.00,VWS V14.01,2013-04-09 06:28:00,
2013-04-09 02:33:00,51.4,49.2,30.12,South,180,0.0,0.0,92,0.00,,CLR,0.00,VWS V14.01,2013-04-09 06:33:00,
2013-04-09 02:38:00,51.6,49.7,30.12,South,180,0.0,0.0,93,0.00,,CLR,0.00,VWS V14.01,2013-04-09 06:38:00,
2013-04-09 02:43:00,52.2,50.2,30.12,South,180,0.0,0.0,93,0.00,,CLR,0.00,VWS V14.01,2013-04-09 06:43:00,
2013-04-09 02:48:00,53.1,51.1,30.12,South,180,0.0,0.0,93,0.00,,CLR,0.00,VWS V14.01,2013-04-09 06:48:00,
2013-04-09 02:53:00,52.7,50.7,30.12,South,180,0.0,0.0,93,0.00,,CLR,0.00,VWS V14.01,2013-04-09 06:53:00,
2013-04-09 02:58:00,52.7,50.7,30.12,South,180,0.0,0.0,93,0.00,,CLR,0.00,VWS V14.01,2013-04-09 06:58:00,
2013-04-09 03:03:00,52.0,49.7,30.12,South,180,0.0,0.0,92,0.00,,CLR,0.00,VWS V14.01,2013-04-09 07:03:00,
2013-04-09 03:09:00,52.0,49.7,30.12,South,180,0.0,0.0,92,0.00,,CLR,0.00,VWS V14.01,2013-04-09 07:09:00,
2013-04-09 03:14:00,50.7,48.5,30.12,South,180,0.0,0.0,92,0.00,,CLR,0.00,VWS V14.01,2013-04-09 07:14:00,
2013-04-09 03:19:00,50.7,48.5,30.12,South,180,0.0,0.0,92,0.00,,CLR,0.00,VWS V14.01,2013-04-09 07:19:00,
2013-04-09 03:24:00,50.2,48.0,30.15,South,180,0.0,0.0,92,0.00,,CLR,0.00,VWS V14.01,2013-04-09 07:24:00,
2013-04-09 03:29:00,49.6,47.7,30.15,South,180,0.0,0.0,93,0.00,,CLR,0.00,VWS V14.01,2013-04-09 07:29:00,
2013-04-09 03:34:00,49.5,47.8,30.12,South,180,0.0,0.0,94,0.00,,CLR,0.00,VWS V14.01,2013-04-09 07:34:00,
2013-04-09 03:39:00,49.1,47.5,30.12,South,180,0.0,0.0,94,0.00,,CLR,0.00,VWS V14.01,2013-04-09 07:39:00,
2013-04-09 03:44:00,48.9,47.5,30.12,South,180,0.0,0.0,95,0.00,,CLR,0.00,VWS V14.01,2013-04-09 07:44:00,
2013-04-09 03:50:00,49.5,48.1,30.12,South,180,0.0,0.0,95,0.00,,CLR,0.00,VWS V14.01,2013-04-09 07:50:00,
2013-04-09 03:55:00,49.6,48.5,30.12,South,180,0.0,0.0,96,0.00,,CLR,0.00,VWS V14.01,2013-04-09 07:55:00,
2013-04-09 04:00:00,49.5,48.4,30.12,South,180,0.0,0.0,96,0.00,,CLR,0.00,VWS V14.01,2013-04-09 08:00:00,
2013-04-09 04:05:00,49.3,48.2,30.12,South,180,0.0,0.0,96,0.00,,CLR,0.00,VWS V14.01,2013-04-09 08:05:00,
2013-04-09 04:10:00,48.9,47.8,30.12,South,180,0.0,0.0,96,0.00,,CLR,0.00,VWS V14.01,2013-04-09 08:10:00,
2013-04-09 04:15:00,48.9,47.8,30.12,South,180,0.0,0.0,96,0.00,,CLR,0.00,VWS V14.01,2013-04-09 08:15:00,
2013-04-09 04:20:00,49.5,48.7,30.12,South,180,0.0,0.0,97,0.00,,CLR,0.00,VWS V14.01,2013-04-09 08:20:00,
2013-04-09 04:25:00,49.8,49.0,30.12,South,180,0.0,0.0,97,0.00,,CLR,0.00,VWS V14.01,2013-04-09 08:25:00,
2013-04-09 04:30:00,49.3,48.5,30.12,SSE,158,4.0,4.5,97,0.00,,CLR,0.00,VWS V14.01,2013-04-09 08:30:00,
2013-04-09 04:35:00,50.2,49.4,30.12,SSE,158,0.0,0.0,97,0.00,,CLR,0.00,VWS V14.01,2013-04-09 08:35:00,
2013-04-09 04:40:00,50.2,49.4,30.12,SSE,158,0.0,0.0,97,0.00,,CLR,0.00,VWS V14.01,2013-04-09 08:40:00,
2013-04-09 04:45:00,50.0,49.2,30.12,SSE,158,0.0,0.0,97,0.00,,CLR,0.00,VWS V14.01,2013-04-09 08:45:00,
2013-04-09 04:50:00,49.8,49.0,30.15,SSE,158,0.0,0.0,97,0.00,,CLR,0.00,VWS V14.01,2013-04-09 08:50:00,
2013-04-09 04:55:00,49.3,48.5,30.15,SSE,158,0.0,0.0,97,0.00,,CLR,0.00,VWS V14.01,2013-04-09 08:55:00,
2013-04-09 05:00:00,48.9,48.1,30.15,SSE,158,0.0,0.0,97,0.00,,CLR,0.00,VWS V14.01,2013-04-09 09:00:00,
2013-04-09 05:05:00,48.7,47.9,30.15,SSE,158,0.0,0.0,97,0.00,,CLR,0.00,VWS V14.01,2013-04-09 09:05:00,
2013-04-09 05:10:00,48.7,47.9,30.15,SSE,158,0.0,0.0,97,0.00,,CLR,0.00,VWS V14.01,2013-04-09 09:10:00,
2013-04-09 05:15:00,48.4,47.6,30.15,SSE,158,0.0,0.0,97,0.00,,CLR,0.00,VWS V14.01,2013-04-09 09:15:00,
2013-04-09 05:21:00,48.2,47.4,30.15,SSE,158,0.0,0.0,97,0.00,,CLR,0.00,VWS V14.01,2013-04-09 09:21:00,
2013-04-09 05:26:00,48.2,47.7,30.15,SSE,158,0.0,0.0,98,0.00,,CLR,0.00,VWS V14.01,2013-04-09 09:26:00,
2013-04-09 05:31:00,47.8,47.3,30.15,SSE,158,0.0,0.0,98,0.00,,CLR,0.00,VWS V14.01,2013-04-09 09:31:00,
2013-04-09 05:36:00,47.8,47.3,30.15,SSE,158,0.0,0.0,98,0.00,,CLR,0.00,VWS V14.01,2013-04-09 09:36:00,
2013-04-09 05:41:00,48.2,47.7,30.15,SSE,158,0.0,0.0,98,0.00,,CLR,0.00,VWS V14.01,2013-04-09 09:41:00,
2013-04-09 05:46:00,47.8,47.3,30.15,SSE,158,0.0,0.0,98,0.00,,CLR,0.00,VWS V14.01,2013-04-09 09:46:00,
2013-04-09 05:52:00,47.7,47.1,30.15,SSE,158,0.0,0.0,98,0.00,,CLR,0.00,VWS V14.01,2013-04-09 09:52:00,
2013-04-09 05:57:00,47.7,47.1,30.15,SSE,158,0.0,0.0,98,0.00,,CLR,0.00,VWS V14.01,2013-04-09 09:57:00,
2013-04-09 06:02:00,47.5,47.0,30.15,SSE,158,0.0,0.0,98,0.00,,CLR,0.00,VWS V14.01,2013-04-09 10:02:00,
2013-04-09 06:07:00,47.3,46.8,30.15,SSE,158,0.0,0.0,98,0.00,,CLR,0.00,VWS V14.01,2013-04-09 10:07:00,
2013-04-09 06:12:00,47.1,46.6,30.15,SSE,158,0.0,0.0,98,0.00,,CLR,0.00,VWS V14.01,2013-04-09 10:12:00,
2013-04-09 06:17:00,47.3,46.8,30.15,SSE,158,0.0,0.0,98,0.00,,CLR,0.00,VWS V14.01,2013-04-09 10:17:00,
2013-04-09 06:22:00,47.1,46.6,30.15,SSE,158,0.0,0.0,98,0.00,,CLR,0.00,VWS V14.01,2013-04-09 10:22:00,
2013-04-09 06:27:00,47.3,46.8,30.15,SSE,158,0.0,0.0,98,0.00,,CLR,0.00,VWS V14.01,2013-04-09 10:27:00,
2013-04-09 06:32:00,47.3,46.8,30.15,SSE,158,0.0,0.0,98,0.00,,CLR,0.00,VWS V14.01,2013-04-09 10:32:00,
2013-04-09 06:37:00,46.9,46.4,30.15,SSE,158,0.0,0.0,98,0.00,,CLR,0.00,VWS V14.01,2013-04-09 10:37:00,
2013-04-09 06:42:00,46.8,46.2,30.15,SSE,158,0.0,0.0,98,0.00,,CLR,0.00,VWS V14.01,2013-04-09 10:42:00,
2013-04-09 06:47:00,46.6,46.0,30.15,SSE,158,0.0,0.0,98,0.00,,CLR,0.00,VWS V14.01,2013-04-09 10:47:00,
2013-04-09 06:52:00,46.6,46.0,30.18,SSE,158,0.0,0.0,98,0.00,,CLR,0.00,VWS V14.01,2013-04-09 10:52:00,
2013-04-09 06:58:00,46.4,45.9,30.18,SSE,158,0.0,0.0,98,0.00,,CLR,0.00,VWS V14.01,2013-04-09 10:58:00,
2013-04-09 07:03:00,46.4,45.9,30.18,SSE,158,0.0,0.0,98,0.00,,CLR,0.00,VWS V14.01,2013-04-09 11:03:00,
2013-04-09 07:08:00,46.4,45.9,30.18,SSE,158,0.0,0.0,98,0.00,,CLR,0.00,VWS V14.01,2013-04-09 11:08:00,
2013-04-09 07:13:00,47.1,46.6,30.18,SSE,158,0.0,0.0,98,0.00,,CLR,0.00,VWS V14.01,2013-04-09 11:13:00,
2013-04-09 07:18:00,47.5,47.0,30.18,SSE,158,0.0,0.0,98,0.00,,CLR,0.00,VWS V14.01,2013-04-09 11:18:00,
2013-04-09 07:23:00,47.5,47.0,30.18,SSE,158,0.0,0.0,98,0.00,,CLR,0.00,VWS V14.01,2013-04-09 11:23:00,
2013-04-09 07:28:00,47.5,47.0,30.18,SSE,158,0.0,0.0,98,0.00,,CLR,0.00,VWS V14.01,2013-04-09 11:28:00,
2013-04-09 07:33:00,47.3,46.8,30.18,SSE,158,0.0,0.0,98,0.00,,CLR,0.00,VWS V14.01,2013-04-09 11:33:00,
2013-04-09 07:38:00,47.3,46.8,30.18,SSE,158,0.0,0.0,98,0.00,,CLR,0.00,VWS V14.01,2013-04-09 11:38:00,
2013-04-09 07:43:00,47.3,46.8,30.18,SSE,158,0.0,0.0,98,0.00,,CLR,0.00,VWS V14.01,2013-04-09 11:43:00,
2013-04-09 07:48:00,47.3,46.8,30.18,SSE,158,0.0,0.0,98,0.00,,CLR,0.00,VWS V14.01,2013-04-09 11:48:00,
2013-04-09 07:53:00,47.5,47.0,30.18,SSE,158,0.0,0.0,98,0.00,,CLR,0.00,VWS V14.01,2013-04-09 11:53:00,
2013-04-09 07:58:00,48.0,47.5,30.18,SSE,158,0.0,0.0,98,0.00,,CLR,0.00,VWS V14.01,2013-04-09 11:58:00,
2013-04-09 08:03:00,49.3,48.7,30.18,SSE,158,0.0,0.0,98,0.00,,CLR,0.00,VWS V14.01,2013-04-09 12:03:00,
2013-04-09 08:08:00,49.8,49.3,30.18,SSE,158,0.0,0.0,98,0.00,,CLR,0.00,VWS V14.01,2013-04-09 12:08:00,
2013-04-09 08:13:00,51.1,50.5,30.18,SSE,158,0.0,0.0,98,0.00,,CLR,0.00,VWS V14.01,2013-04-09 12:13:00,
2013-04-09 08:18:00,51.6,51.1,30.18,SSE,158,0.0,0.0,98,0.00,,CLR,0.00,VWS V14.01,2013-04-09 12:18:00,
2013-04-09 08:23:00,52.3,51.8,30.18,SSE,158,0.0,0.0,98,0.00,,CLR,0.00,VWS V14.01,2013-04-09 12:23:00,
2013-04-09 08:28:00,53.8,53.2,30.18,SSE,158,0.0,0.0,98,0.00,,CLR,0.00,VWS V14.01,2013-04-09 12:28:00,
2013-04-09 08:33:00,54.5,54.0,30.18,SSW,202,0.0,0.0,98,0.00,,CLR,0.00,VWS V14.01,2013-04-09 12:33:00,
2013-04-09 08:38:00,55.8,55.2,30.21,SSW,202,0.0,0.0,98,0.00,,CLR,0.04,VWS V14.01,2013-04-09 12:38:00,
2013-04-09 08:43:00,56.3,55.8,30.21,SSW,202,0.0,0.0,98,0.00,,CLR,0.00,VWS V14.01,2013-04-09 12:43:00,
2013-04-09 08:48:00,57.2,55.8,30.21,SSW,202,0.0,0.0,95,0.00,,CLR,0.00,VWS V14.01,2013-04-09 12:48:00,
2013-04-09 08:53:00,58.5,56.2,30.21,SSW,202,0.0,0.0,92,0.00,,CLR,0.00,VWS V14.01,2013-04-09 12:53:00,
2013-04-09 08:58:00,59.4,54.9,30.21,SSW,202,0.0,0.0,85,0.00,,CLR,0.00,VWS V14.01,2013-04-09 12:58:00,
2013-04-09 09:03:00,60.3,53.4,30.21,SSW,202,0.0,0.0,78,0.00,,CLR,0.00,VWS V14.01,2013-04-09 13:03:00,
2013-04-09 09:08:00,60.6,51.2,30.21,SSW,202,0.0,2.2,71,0.00,,CLR,0.00,VWS V14.01,2013-04-09 13:08:00,
2013-04-09 09:13:00,61.2,50.1,30.21,SSW,202,2.2,2.2,67,0.00,,CLR,0.00,VWS V14.01,2013-04-09 13:13:00,
2013-04-09 09:19:00,61.7,49.8,30.21,SSW,202,0.0,0.0,65,0.00,,CLR,0.00,VWS V14.01,2013-04-09 13:19:00,
2013-04-09 09:24:00,62.2,49.9,30.21,SSW,202,0.0,2.2,64,0.00,,CLR,0.00,VWS V14.01,2013-04-09 13:24:00,
2013-04-09 09:29:00,63.0,49.8,30.21,WNW,292,3.6,3.6,62,0.00,,CLR,0.00,VWS V14.01,2013-04-09 13:29:00,
2013-04-09 09:34:00,63.5,48.5,30.21,WSW,248,2.7,3.6,58,0.00,,CLR,0.00,VWS V14.01,2013-04-09 13:34:00,
2013-04-09 09:39:00,63.9,47.9,30.21,WNW,292,2.7,2.7,56,0.00,,CLR,0.00,VWS V14.01,2013-04-09 13:39:00,
2013-04-09 09:44:00,64.8,48.2,30.21,WNW,292,2.7,2.7,55,0.00,,CLR,0.00,VWS V14.01,2013-04-09 13:44:00,
2013-04-09 09:49:00,65.8,48.2,30.21,WNW,292,2.7,4.0,53,0.00,,CLR,0.00,VWS V14.01,2013-04-09 13:49:00,
2013-04-09 09:54:00,66.0,47.4,30.21,WNW,292,3.1,3.1,51,0.00,,CLR,0.00,VWS V14.01,2013-04-09 13:54:00,
2013-04-09 09:59:00,66.9,47.7,30.21,West,270,0.0,2.7,50,0.00,,CLR,0.00,VWS V14.01,2013-04-09 13:59:00,
2013-04-09 10:04:00,67.6,47.3,30.21,West,270,2.7,3.6,48,0.00,,CLR,0.00,VWS V14.01,2013-04-09 14:04:00,
2013-04-09 10:09:00,68.0,46.5,30.21,West,270,0.0,2.7,46,0.00,,CLR,0.00,VWS V14.01,2013-04-09 14:09:00,
2013-04-09 10:14:00,68.5,46.4,30.21,WNW,292,2.2,3.1,45,0.00,,CLR,0.00,VWS V14.01,2013-04-09 14:14:00,
2013-04-09 10:20:00,68.9,46.7,30.21,WNW,292,2.2,2.7,45,0.00,,CLR,0.00,VWS V14.01,2013-04-09 14:20:00,
2013-04-09 10:25:00,69.4,46.6,30.21,WNW,292,0.0,0.0,44,0.00,,CLR,0.00,VWS V14.01,2013-04-09 14:25:00,
2013-04-09 10:30:00,70.2,46.6,30.21,WNW,292,3.6,3.6,43,0.00,,CLR,0.00,VWS V14.01,2013-04-09 14:30:00,
2013-04-09 10:35:00,70.2,46.0,30.21,West,270,0.0,2.7,42,0.00,,CLR,0.00,VWS V14.01,2013-04-09 14:35:00,
2013-04-09 10:40:00,70.9,46.7,30.21,SSW,202,2.7,3.1,42,0.00,,CLR,0.00,VWS V14.01,2013-04-09 14:40:00,
2013-04-09 10:45:00,71.2,47.0,30.21,SSE,158,2.2,2.7,42,0.00,,CLR,0.00,VWS V14.01,2013-04-09 14:45:00,
2013-04-09 10:50:00,71.8,46.2,30.21,WSW,248,3.1,4.0,40,0.00,,CLR,0.00,VWS V14.01,2013-04-09 14:50:00,
2013-04-09 10:55:00,71.8,44.8,30.21,WSW,248,0.0,0.0,38,0.00,,CLR,0.00,VWS V14.01,2013-04-09 14:55:00,
2013-04-09 11:01:00,72.1,45.2,30.21,WSW,248,2.2,2.2,38,0.00,,CLR,0.00,VWS V14.01,2013-04-09 15:01:00,
2013-04-09 11:06:00,72.9,45.8,30.21,WSW,248,2.2,3.1,38,0.00,,CLR,0.00,VWS V14.01,2013-04-09 15:06:00,
2013-04-09 11:11:00,73.2,45.4,30.21,WSW,248,2.7,3.1,37,0.00,,CLR,0.00,VWS V14.01,2013-04-09 15:11:00,
2013-04-09 11:16:00,73.9,44.6,30.21,WSW,248,2.2,2.2,35,0.00,,CLR,0.00,VWS V14.01,2013-04-09 15:16:00,
2013-04-09 11:21:00,74.3,44.9,30.21,WSW,248,2.7,2.7,35,0.00,,CLR,0.00,VWS V14.01,2013-04-09 15:21:00,
2013-04-09 11:26:00,75.6,46.0,30.21,WSW,248,2.2,2.2,35,0.00,,CLR,0.00,VWS V14.01,2013-04-09 15:26:00,
2013-04-09 11:31:00,76.5,45.2,30.21,WSW,248,0.0,2.7,33,0.00,,CLR,0.00,VWS V14.01,2013-04-09 15:31:00,
2013-04-09 11:37:00,78.3,45.2,30.21,WSW,248,2.7,2.7,31,0.00,,CLR,0.00,VWS V14.01,2013-04-09 15:37:00,
2013-04-09 11:41:00,78.8,44.8,30.21,SSE,158,2.7,3.6,30,0.00,,CLR,0.00,VWS V14.01,2013-04-09 15:41:00,
2013-04-09 11:47:00,77.9,44.0,30.21,SSW,202,2.2,2.2,30,0.00,,CLR,0.00,VWS V14.01,2013-04-09 15:47:00,
2013-04-09 11:52:00,78.1,44.2,30.21,SSW,202,2.7,5.4,30,0.00,,CLR,0.00,VWS V14.01,2013-04-09 15:52:00,
2013-04-09 11:57:00,78.1,44.2,30.21,SSW,202,2.7,3.6,30,0.00,,CLR,0.00,VWS V14.01,2013-04-09 15:57:00,
2013-04-09 12:02:00,78.6,44.6,30.21,SSE,158,6.3,7.2,30,0.00,,CLR,0.00,VWS V14.01,2013-04-09 16:02:00,
2013-04-09 12:07:00,79.0,43.1,30.21,SSW,202,0.0,0.0,28,0.00,,CLR,0.00,VWS V14.01,2013-04-09 16:07:00,
2013-04-09 12:12:00,79.9,41.0,30.21,SSW,202,0.0,0.0,25,0.00,,CLR,0.00,VWS V14.01,2013-04-09 16:12:00,
2013-04-09 12:17:00,79.0,42.2,30.21,SSW,202,4.9,4.9,27,0.00,,CLR,0.00,VWS V14.01,2013-04-09 16:17:00,
2013-04-09 12:22:00,78.6,42.8,30.21,SSW,202,0.0,0.0,28,0.00,,CLR,0.00,VWS V14.01,2013-04-09 16:22:00,
2013-04-09 12:27:00,79.3,42.5,30.21,SSW,202,4.0,4.5,27,0.00,,CLR,0.00,VWS V14.01,2013-04-09 16:27:00,
2013-04-09 12:32:00,79.0,40.2,30.21,SSW,202,0.0,4.5,25,0.00,,CLR,0.00,VWS V14.01,2013-04-09 16:32:00,
2013-04-09 12:37:00,79.5,39.6,30.18,SSW,202,4.0,4.0,24,0.00,,CLR,0.00,VWS V14.01,2013-04-09 16:37:00,
2013-04-09 12:42:00,80.1,39.0,30.18,WSW,248,3.1,3.1,23,0.00,,CLR,0.00,VWS V14.01,2013-04-09 16:42:00,
2013-04-09 12:47:00,80.6,41.6,30.18,SSW,202,2.7,2.7,25,0.00,,CLR,0.00,VWS V14.01,2013-04-09 16:47:00,
2013-04-09 12:52:00,80.4,39.3,30.18,South,180,4.0,4.0,23,0.00,,CLR,0.00,VWS V14.01,2013-04-09 16:52:00,
2013-04-09 12:57:00,80.1,39.0,30.18,WSW,248,3.6,3.6,23,0.00,,CLR,0.00,VWS V14.01,2013-04-09 16:57:00,
2013-04-09 13:02:00,81.0,39.7,30.18,SSE,158,4.5,7.2,23,0.00,,CLR,0.00,VWS V14.01,2013-04-09 17:02:00,
2013-04-09 13:07:00,81.0,38.6,30.18,SE,135,2.2,3.6,22,0.00,,CLR,0.00,VWS V14.01,2013-04-09 17:07:00,
2013-04-09 13:12:00,82.2,40.8,30.18,SE,135,5.8,5.8,23,0.00,,CLR,0.00,VWS V14.01,2013-04-09 17:12:00,
2013-04-09 13:17:00,80.4,39.3,30.18,SSW,202,3.6,3.6,23,0.00,,CLR,0.00,VWS V14.01,2013-04-09 17:17:00,
2013-04-09 13:23:00,81.1,41.0,30.18,WSW,248,5.8,5.8,24,0.00,,CLR,0.00,VWS V14.01,2013-04-09 17:23:00,
2013-04-09 13:28:00,80.2,41.3,30.18,SSW,202,3.1,5.4,25,0.00,,CLR,0.00,VWS V14.01,2013-04-09 17:28:00,
2013-04-09 13:33:00,80.4,42.4,30.18,SW,225,3.1,4.9,26,0.00,,CLR,0.00,VWS V14.01,2013-04-09 17:33:00,
2013-04-09 13:38:00,81.0,39.7,30.18,SSE,158,9.6,9.6,23,0.00,,CLR,0.00,VWS V14.01,2013-04-09 17:38:00,
2013-04-09 13:43:00,80.6,40.5,30.18,SSE,158,3.1,3.6,24,0.00,,CLR,0.00,VWS V14.01,2013-04-09 17:43:00,
2013-04-09 13:48:00,80.6,39.4,30.18,SSE,158,3.1,3.1,23,0.00,,CLR,0.00,VWS V14.01,2013-04-09 17:48:00,
2013-04-09 13:53:00,81.0,38.6,30.18,SSE,158,5.4,5.4,22,0.00,,CLR,0.00,VWS V14.01,2013-04-09 17:53:00,
2013-04-09 13:58:00,81.7,39.2,30.18,ESE,112,4.0,6.3,22,0.00,,CLR,0.00,VWS V14.01,2013-04-09 17:58:00,
2013-04-09 14:03:00,81.5,40.2,30.18,SSW,202,3.1,3.1,23,0.00,,CLR,0.00,VWS V14.01,2013-04-09 18:03:00,
2013-04-09 14:08:00,82.9,41.4,30.15,SSW,202,5.8,5.8,23,0.00,,CLR,0.00,VWS V14.01,2013-04-09 18:08:00,
2013-04-09 14:13:00,82.8,40.1,30.15,SSE,158,3.1,3.1,22,0.00,,CLR,0.00,VWS V14.01,2013-04-09 18:13:00,
2013-04-09 14:19:00,82.8,38.9,30.15,SE,135,3.6,3.6,21,0.00,,CLR,0.00,VWS V14.01,2013-04-09 18:19:00,
2013-04-09 14:24:00,82.6,38.7,30.15,SSW,202,6.3,6.3,21,0.00,,CLR,0.00,VWS V14.01,2013-04-09 18:24:00,
2013-04-09 14:29:00,82.4,38.6,30.15,WSW,248,5.4,5.4,21,0.00,,CLR,0.00,VWS V14.01,2013-04-09 18:29:00,
2013-04-09 14:34:00,83.3,39.3,30.15,SSW,202,3.1,5.8,21,0.00,,CLR,0.00,VWS V14.01,2013-04-09 18:34:00,
2013-04-09 14:39:00,83.5,40.7,30.15,SSW,202,4.9,4.9,22,0.00,,CLR,0.00,VWS V14.01,2013-04-09 18:39:00,
2013-04-09 14:44:00,82.6,38.7,30.15,WSW,248,3.6,3.6,21,0.00,,CLR,0.00,VWS V14.01,2013-04-09 18:44:00,
2013-04-09 14:49:00,82.4,38.6,30.15,SSW,202,5.4,5.4,21,0.00,,CLR,0.00,VWS V14.01,2013-04-09 18:49:00,
2013-04-09 14:54:00,83.1,41.5,30.15,SSE,158,4.9,6.3,23,0.00,,CLR,0.00,VWS V14.01,2013-04-09 18:54:00,
2013-04-09 14:59:00,83.3,41.7,30.15,SE,135,2.7,3.6,23,0.00,,CLR,0.00,VWS V14.01,2013-04-09 18:59:00,
2013-04-09 15:05:00,83.5,40.7,30.15,South,180,2.7,4.0,22,0.00,,CLR,0.00,VWS V14.01,2013-04-09 19:05:00,
2013-04-09 15:10:00,82.6,39.9,30.15,WSW,248,8.1,8.1,22,0.00,,CLR,0.00,VWS V14.01,2013-04-09 19:10:00,
2013-04-09 15:15:00,82.9,39.0,30.15,West,270,3.6,3.6,21,0.00,,CLR,0.00,VWS V14.01,2013-04-09 19:15:00,
2013-04-09 15:20:00,83.5,39.5,30.12,WSW,248,3.1,3.6,21,0.00,,CLR,0.00,VWS V14.01,2013-04-09 19:20:00,
2013-04-09 15:25:00,83.7,40.8,30.12,South,180,5.4,10.1,22,0.00,,SCT070,0.00,VWS V14.01,2013-04-09 19:25:00,
2013-04-09 15:30:00,83.3,40.5,30.12,SSW,202,3.6,3.6,22,0.00,,SCT070,0.00,VWS V14.01,2013-04-09 19:30:00,
2013-04-09 15:35:00,83.7,40.8,30.12,SE,135,8.3,8.3,22,0.00,,SCT070,0.00,VWS V14.01,2013-04-09 19:35:00,
2013-04-09 15:40:00,82.4,40.9,30.12,South,180,4.0,4.0,23,0.00,,SCT070,0.00,VWS V14.01,2013-04-09 19:40:00,
2013-04-09 15:45:00,82.2,41.9,30.12,SSE,158,2.7,2.7,24,0.00,,CLR,0.00,VWS V14.01,2013-04-09 19:45:00,
2013-04-09 15:50:00,82.9,42.5,30.12,SSE,158,0.0,4.9,24,0.00,,CLR,0.00,VWS V14.01,2013-04-09 19:50:00,
2013-04-09 15:55:00,82.0,41.7,30.12,SSW,202,4.9,4.9,24,0.00,,CLR,0.00,VWS V14.01,2013-04-09 19:55:00,
2013-04-09 16:00:00,82.2,41.9,30.12,WSW,248,4.9,7.2,24,0.00,,CLR,0.00,VWS V14.01,2013-04-09 20:00:00,
2013-04-09 16:05:00,82.6,43.2,30.12,SSE,158,4.9,4.9,25,0.00,,CLR,0.00,VWS V14.01,2013-04-09 20:05:00,
2013-04-09 16:10:00,83.3,41.7,30.12,SSE,158,5.4,5.8,23,0.00,,CLR,0.00,VWS V14.01,2013-04-09 20:10:00,
2013-04-09 16:15:00,83.5,40.7,30.12,WSW,248,5.4,8.3,22,0.00,,CLR,0.00,VWS V14.01,2013-04-09 20:15:00,
2013-04-09 16:20:00,83.8,43.2,30.12,WSW,248,3.1,4.0,24,0.00,,CLR,0.00,VWS V14.01,2013-04-09 20:20:00,
2013-04-09 16:25:00,83.5,40.7,30.12,SSW,202,3.6,4.0,22,0.00,,CLR,0.00,VWS V14.01,2013-04-09 20:25:00,
2013-04-09 16:31:00,83.3,40.5,30.12,SSE,158,7.2,7.2,22,0.00,,CLR,0.00,VWS V14.01,2013-04-09 20:31:00,
2013-04-09 16:36:00,83.1,40.4,30.12,SE,135,6.3,7.6,22,0.00,,CLR,0.00,VWS V14.01,2013-04-09 20:36:00,
2013-04-09 16:41:00,82.8,41.2,30.12,SSE,158,3.1,6.3,23,0.00,,CLR,0.00,VWS V14.01,2013-04-09 20:41:00,
2013-04-09 16:46:00,82.4,40.9,30.12,SSE,158,8.1,8.1,23,0.00,,CLR,0.00,VWS V14.01,2013-04-09 20:46:00,
2013-04-09 16:51:00,82.2,42.9,30.12,SSW,202,5.4,5.4,25,0.00,,CLR,0.00,VWS V14.01,2013-04-09 20:51:00,
2013-04-09 16:56:00,82.8,42.3,30.12,SSE,158,5.8,5.8,24,0.00,,CLR,0.00,VWS V14.01,2013-04-09 20:56:00,
2013-04-09 17:01:00,82.4,43.1,30.12,SSW,202,4.0,5.4,25,0.00,,CLR,0.00,VWS V14.01,2013-04-09 21:01:00,
2013-04-09 17:07:00,82.0,43.8,30.12,SSW,202,5.8,5.8,26,0.00,,CLR,0.00,VWS V14.01,2013-04-09 21:07:00,
2013-04-09 17:12:00,81.7,44.5,30.12,SSE,158,5.8,10.1,27,0.00,,CLR,0.00,VWS V14.01,2013-04-09 21:12:00,
2013-04-09 17:17:00,81.7,44.5,30.12,SSE,158,3.1,3.6,27,0.00,,CLR,0.00,VWS V14.01,2013-04-09 21:17:00,
2013-04-09 17:22:00,81.9,42.6,30.12,SSW,202,5.4,5.4,25,0.00,,SCT070,0.00,VWS V14.01,2013-04-09 21:22:00,
2013-04-09 17:27:00,81.7,42.5,30.12,SSW,202,5.8,7.6,25,0.00,,SCT070,0.00,VWS V14.01,2013-04-09 21:27:00,
2013-04-09 17:32:00,81.3,44.2,30.12,SSW,202,4.9,8.3,27,0.00,,SCT070,0.00,VWS V14.01,2013-04-09 21:32:00,
2013-04-09 17:37:00,81.0,42.9,30.12,WSW,248,3.6,5.4,26,0.00,,SCT070,0.00,VWS V14.01,2013-04-09 21:37:00,
2013-04-09 17:42:00,81.0,42.9,30.12,South,180,5.4,5.4,26,0.00,,SCT070,0.00,VWS V14.01,2013-04-09 21:42:00,
2013-04-09 17:47:00,81.1,42.0,30.12,SE,135,3.6,6.3,25,0.00,,SCT070,0.00,VWS V14.01,2013-04-09 21:47:00,
2013-04-09 17:52:00,81.1,42.0,30.12,SSW,202,3.6,5.8,25,0.00,,SCT070,0.00,VWS V14.01,2013-04-09 21:52:00,
2013-04-09 17:57:00,81.3,43.2,30.12,SSW,202,4.0,7.6,26,0.00,,SCT070,0.00,VWS V14.01,2013-04-09 21:57:00,
2013-04-09 18:02:00,81.0,42.9,30.12,SSW,202,4.0,4.0,26,0.00,,SCT070,0.00,VWS V14.01,2013-04-09 22:02:00,
2013-04-09 18:07:00,80.6,43.6,30.12,South,180,10.5,10.5,27,0.00,,SCT070,0.00,VWS V14.01,2013-04-09 22:07:00,
2013-04-09 18:12:00,80.2,42.3,30.12,SSW,202,7.6,10.1,26,0.00,,SCT070,0.00,VWS V14.01,2013-04-09 22:12:00,
2013-04-09 18:18:00,80.2,43.3,30.12,SSE,158,3.6,6.3,27,0.00,,SCT070,0.00,VWS V14.01,2013-04-09 22:18:00,
2013-04-09 18:23:00,80.4,43.4,30.12,SSE,158,6.7,6.7,27,0.00,,SCT070,0.00,VWS V14.01,2013-04-09 22:23:00,
2013-04-09 18:28:00,80.1,43.1,30.12,SSW,202,3.6,4.9,27,0.00,,SCT070,0.00,VWS V14.01,2013-04-09 22:28:00,
2013-04-09 18:33:00,79.7,42.8,30.12,SW,225,3.1,5.4,27,0.00,,SCT070,0.00,VWS V14.01,2013-04-09 22:33:00,
2013-04-09 18:38:00,79.9,42.0,30.12,SW,225,3.1,7.2,26,0.00,,SCT070,0.00,VWS V14.01,2013-04-09 22:38:00,
2013-04-09 18:43:00,79.5,42.6,30.12,SW,225,3.6,3.6,27,0.00,,CLR,0.00,VWS V14.01,2013-04-09 22:43:00,
2013-04-09 18:48:00,79.3,42.5,30.12,SW,225,3.6,3.6,27,0.00,,CLR,0.00,VWS V14.01,2013-04-09 22:48:00,
2013-04-09 18:53:00,79.0,42.2,30.12,SSW,202,5.8,5.8,27,0.00,,CLR,0.00,VWS V14.01,2013-04-09 22:53:00,
2013-04-09 18:58:00,78.6,42.8,30.12,SSW,202,2.7,3.1,28,0.00,,CLR,0.00,VWS V14.01,2013-04-09 22:58:00,
2013-04-09 19:03:00,78.3,43.4,30.12,South,180,3.1,3.6,29,0.00,,CLR,0.00,VWS V14.01,2013-04-09 23:03:00,
2013-04-09 19:08:00,77.7,43.8,30.12,SSE,158,8.3,8.3,30,0.00,,CLR,0.00,VWS V14.01,2013-04-09 23:08:00,
2013-04-09 19:13:00,77.7,43.8,30.12,SSE,158,8.1,8.1,30,0.00,,CLR,0.00,VWS V14.01,2013-04-09 23:13:00,
2013-04-09 19:18:00,77.4,43.5,30.12,SSW,202,3.6,3.6,30,0.00,,CLR,0.00,VWS V14.01,2013-04-09 23:18:00,
2013-04-09 19:23:00,77.4,43.5,30.12,South,180,4.0,4.0,30,0.00,,CLR,0.00,VWS V14.01,2013-04-09 23:23:00,
2013-04-09 19:28:00,76.6,43.8,30.12,SW,225,3.1,3.6,31,0.00,,CLR,0.00,VWS V14.01,2013-04-09 23:28:00,
2013-04-09 19:33:00,76.5,43.6,30.12,SW,225,2.7,5.8,31,0.00,,CLR,0.00,VWS V14.01,2013-04-09 23:33:00,
2013-04-09 19:38:00,75.9,43.1,30.12,SSW,202,0.0,3.1,31,0.00,,CLR,0.00,VWS V14.01,2013-04-09 23:38:00,
2013-04-09 19:43:00,75.7,43.0,30.12,SW,225,3.1,3.1,31,0.00,,CLR,0.00,VWS V14.01,2013-04-09 23:43:00,
2013-04-09 19:48:00,75.2,43.3,30.12,SW,225,2.7,4.0,32,0.00,,CLR,0.00,VWS V14.01,2013-04-09 23:48:00,
2013-04-09 19:53:00,75.0,43.2,30.12,SW,225,2.7,2.7,32,0.00,,CLR,0.00,VWS V14.01,2013-04-09 23:53:00,
2013-04-09 19:59:00,74.5,43.5,30.12,SW,225,2.2,2.2,33,0.00,,CLR,0.00,VWS V14.01,2013-04-09 23:59:00,
2013-04-09 20:04:00,74.3,43.4,30.12,SSE,158,3.1,3.1,33,0.00,,CLR,0.00,VWS V14.01,2013-04-10 00:04:00,
2013-04-09 20:09:00,74.1,43.2,30.12,SSW,202,2.7,2.7,33,0.00,,CLR,0.00,VWS V14.01,2013-04-10 00:09:00,
2013-04-09 20:14:00,73.6,42.7,30.12,SSE,158,2.2,3.1,33,0.00,,CLR,0.00,VWS V14.01,2013-04-10 00:14:00,
2013-04-09 20:19:00,73.2,43.2,30.12,SSE,158,0.0,0.0,34,0.00,,CLR,0.00,VWS V14.01,2013-04-10 00:19:00,
2013-04-09 20:24:00,72.7,43.5,30.12,SSE,158,0.0,2.7,35,0.00,,CLR,0.00,VWS V14.01,2013-04-10 00:24:00,
2013-04-09 20:29:00,72.9,43.6,30.12,SSE,158,3.1,3.1,35,0.00,,CLR,0.00,VWS V14.01,2013-04-10 00:29:00,
2013-04-09 20:34:00,72.5,43.3,30.12,SSE,158,0.0,0.0,35,0.00,,CLR,0.00,VWS V14.01,2013-04-10 00:34:00,
2013-04-09 20:39:00,72.1,43.7,30.12,SSE,158,2.7,2.7,36,0.00,,CLR,0.00,VWS V14.01,2013-04-10 00:39:00,
2013-04-09 20:44:00,72.1,43.7,30.12,SSW,202,2.2,2.2,36,0.00,,CLR,0.00,VWS V14.01,2013-04-10 00:44:00,
2013-04-09 20:49:00,72.0,43.6,30.12,SSE,158,2.2,2.2,36,0.00,,CLR,0.00,VWS V14.01,2013-04-10 00:49:00,
2013-04-09 20:54:00,71.8,43.4,30.15,SSE,158,2.7,2.7,36,0.00,,CLR,0.00,VWS V14.01,2013-04-10 00:54:00,
2013-04-09 20:59:00,71.8,44.1,30.15,SSE,158,2.2,2.7,37,0.00,,CLR,0.00,VWS V14.01,2013-04-10 00:59:00,
2013-04-09 21:04:00,71.2,43.7,30.15,SSE,158,0.0,0.0,37,0.00,,CLR,0.00,VWS V14.01,2013-04-10 01:04:00,
2013-04-09 21:09:00,70.7,43.9,30.15,SSE,158,0.0,0.0,38,0.00,,CLR,0.00,VWS V14.01,2013-04-10 01:09:00,
2013-04-09 21:14:00,70.3,44.2,30.15,SSE,158,0.0,0.0,39,0.00,,CLR,0.00,VWS V14.01,2013-04-10 01:14:00,
2013-04-09 21:19:00,70.2,44.1,30.15,SSE,158,0.0,0.0,39,0.00,,CLR,0.00,VWS V14.01,2013-04-10 01:19:00,
2013-04-09 21:24:00,69.8,44.4,30.15,SSE,158,0.0,0.0,40,0.00,,CLR,0.00,VWS V14.01,2013-04-10 01:24:00,
2013-04-09 21:29:00,69.8,45.1,30.15,SSE,158,0.0,0.0,41,0.00,,CLR,0.00,VWS V14.01,2013-04-10 01:29:00,
2013-04-09 21:34:00,69.8,45.1,30.15,SSE,158,0.0,0.0,41,0.00,,CLR,0.00,VWS V14.01,2013-04-10 01:34:00,
2013-04-09 21:39:00,69.4,45.4,30.15,SSE,158,0.0,0.0,42,0.00,,CLR,0.00,VWS V14.01,2013-04-10 01:39:00,
2013-04-09 21:44:00,69.4,45.4,30.15,SSE,158,2.2,2.2,42,0.00,,CLR,0.00,VWS V14.01,2013-04-10 01:44:00,
2013-04-09 21:49:00,69.3,45.8,30.15,SSE,158,0.0,0.0,43,0.00,,CLR,0.00,VWS V14.01,2013-04-10 01:49:00,
2013-04-09 21:54:00,69.3,45.8,30.15,SSE,158,0.0,0.0,43,0.00,,CLR,0.00,VWS V14.01,2013-04-10 01:54:00,
2013-04-09 21:59:00,69.1,45.7,30.15,SSE,158,0.0,0.0,43,0.00,,CLR,0.00,VWS V14.01,2013-04-10 01:59:00,
2013-04-09 22:05:00,68.9,45.5,30.15,SSE,158,0.0,0.0,43,0.00,,CLR,0.00,VWS V14.01,2013-04-10 02:05:00,
2013-04-09 22:10:00,68.7,45.3,30.15,SSE,158,0.0,0.0,43,0.00,,CLR,0.00,VWS V14.01,2013-04-10 02:10:00,
2013-04-09 22:15:00,68.2,45.5,30.15,SSE,158,0.0,0.0,44,0.00,,CLR,0.00,VWS V14.01,2013-04-10 02:15:00,
2013-04-09 22:20:00,67.5,45.4,30.15,SSE,158,0.0,0.0,45,0.00,,CLR,0.00,VWS V14.01,2013-04-10 02:20:00,
2013-04-09 22:25:00,66.9,45.5,30.15,SSE,158,0.0,0.0,46,0.00,,CLR,0.00,VWS V14.01,2013-04-10 02:25:00,
2013-04-09 22:30:00,66.0,46.3,30.15,SSE,158,0.0,0.0,49,0.00,,CLR,0.00,VWS V14.01,2013-04-10 02:30:00,
2013-04-09 22:35:00,65.5,46.4,30.15,SSE,158,0.0,0.0,50,0.00,,CLR,0.00,VWS V14.01,2013-04-10 02:35:00,
2013-04-09 22:40:00,64.9,46.9,30.15,SSE,158,0.0,0.0,52,0.00,,CLR,0.00,VWS V14.01,2013-04-10 02:40:00,
2013-04-09 22:45:00,65.1,47.1,30.15,SSE,158,0.0,0.0,52,0.00,,CLR,0.00,VWS V14.01,2013-04-10 02:45:00,
2013-04-09 22:50:00,65.7,47.1,30.12,SSE,158,0.0,0.0,51,0.00,,CLR,0.00,VWS V14.01,2013-04-10 02:50:00,
2013-04-09 22:55:00,65.3,47.2,30.12,SSE,158,0.0,0.0,52,0.00,,CLR,0.00,VWS V14.01,2013-04-10 02:55:00,
2013-04-09 23:00:00,64.8,47.2,30.12,SSE,158,0.0,0.0,53,0.00,,CLR,0.00,VWS V14.01,2013-04-10 03:00:00,
2013-04-09 23:05:00,64.2,47.7,30.12,SSE,158,0.0,0.0,55,0.00,,CLR,0.00,VWS V14.01,2013-04-10 03:05:00,
2013-04-09 23:10:00,63.7,48.2,30.12,SSE,158,0.0,0.0,57,0.00,,CLR,0.00,VWS V14.01,2013-04-10 03:10:00,
2013-04-09 23:16:00,63.5,48.5,30.12,SSE,158,0.0,0.0,58,0.00,,CLR,0.00,VWS V14.01,2013-04-10 03:16:00,
2013-04-09 23:21:00,63.1,48.1,30.12,SSE,158,0.0,0.0,58,0.00,,CLR,0.00,VWS V14.01,2013-04-10 03:21:00,
2013-04-09 23:26:00,63.3,48.8,30.12,SSE,158,0.0,0.0,59,0.00,,CLR,0.00,VWS V14.01,2013-04-10 03:26:00,
2013-04-09 23:31:00,63.0,48.9,30.12,SSE,158,0.0,0.0,60,0.00,,CLR,0.00,VWS V14.01,2013-04-10 03:31:00,
2013-04-09 23:36:00,62.6,49.0,30.12,SSE,158,0.0,0.0,61,0.00,,CLR,0.00,VWS V14.01,2013-04-10 03:36:00,
2013-04-09 23:41:00,62.2,49.5,30.12,SSE,158,0.0,0.0,63,0.00,,CLR,0.00,VWS V14.01,2013-04-10 03:41:00,
2013-04-09 23:46:00,61.7,49.4,30.12,SSE,158,0.0,0.0,64,0.00,,CLR,0.00,VWS V14.01,2013-04-10 03:46:00,
2013-04-09 23:52:00,61.3,49.9,30.12,SSE,158,0.0,0.0,66,0.00,,CLR,0.00,VWS V14.01,2013-04-10 03:52:00,
2013-04-09 23:57:00,61.3,50.3,30.12,SSE,158,0.0,0.0,67,0.00,,CLR,0.00,VWS V14.01,2013-04-10 03:57:00,